sat.trackr.live / text

‹ back to catalog

STARLINK-5133

NORAD 53980 · 2022-125S

PAYLOAD ACTIVE UNKNOWN

§ Identity

Operator
Country
US
Launch date
2022-10-05
Launch site
AFWTR
Launch vehicle
Mass (kg)
RCS (m²)

Purposes: comms

External: N2YO · Heavens-Above · Gunter

§ Orbital elements

Epoch: 2026-09-20T22:00:03.000096Z

Period
93.90 min
Inclination
53.1592°
Eccentricity
0.0001056
Mean motion
15.33515298 rev/d
Perigee alt
464.6 km
Apogee alt
466.1 km
Semi-major
6,843.5 km
B*
1.8187e-3
RAAN
59.6623°
Arg perigee
54.4565°
Mean anomaly
142.9714°
Rev number
580

§ Raw data

STARLINK-51331 53980U 22125S   26263.91670139  .00059855  00000+0  18187-2 0  99902 53980  53.1592  59.6623 0001056  54.4565 142.9714 15.33515298  5807

JSON: /api/v1/satellites/53980 · /tle

For live sub-satellite position, see the globe view (requires WebGL).

§ Visibility from observer

Set your observer location to see the next 7 days of passes ≥ 10°. The values pass through the URL so the page stays shareable.

No JS? Fill the form by hand. The geolocation button needs JavaScript.